TimeEET,TemperatureF,Dew PointF,Humidity,Sea Level PressureIn,VisibilityMPH,Wind Direction,Wind SpeedMPH,Gust SpeedMPH,PrecipitationIn,Events,Conditions,WindDirDegrees,DateUTC
12:00 AM,39.2,30.2,70,30.24,-9999.0,Calm,Calm,-,N/A,,Clear,0,2013-01-14 22:00:00
1:00 AM,37.4,30.2,75,30.24,-9999.0,Calm,Calm,-,N/A,,Clear,0,2013-01-14 23:00:00
2:00 AM,37.4,30.2,75,30.24,-9999.0,Calm,Calm,-,N/A,,Clear,0,2013-01-15 00:00:00
5:00 AM,33.8,28.4,81,30.24,-9999.0,Calm,Calm,-,N/A,,Clear,0,2013-01-15 03:00:00
6:00 AM,33.8,28.4,81,30.24,-9999.0,Calm,Calm,-,N/A,,Clear,0,2013-01-15 04:00:00
7:00 AM,33.8,28.4,81,30.24,-9999.0,Calm,Calm,-,N/A,,Clear,0,2013-01-15 05:00:00
8:00 AM,35.6,28.4,75,30.27,-9999.0,Calm,Calm,-,N/A,,Clear,0,2013-01-15 06:00:00
9:00 AM,42.8,30.2,61,30.27,-9999.0,Calm,Calm,-,N/A,,Clear,0,2013-01-15 07:00:00
10:00 AM,51.8,26.6,38,30.24,-9999.0,Calm,Calm,-,N/A,,Clear,0,2013-01-15 08:00:00
11:00 AM,59.0,17.6,20,30.21,-9999.0,East,3.5,-,N/A,,Clear,80,2013-01-15 09:00:00
12:00 PM,60.8,19.4,20,30.21,-9999.0,East,3.5,-,N/A,,Clear,80,2013-01-15 10:00:00
1:00 PM,60.8,19.4,20,30.21,-9999.0,Variable,3.5,-,N/A,,Clear,0,2013-01-15 11:00:00
2:00 PM,64.4,17.6,16,30.18,-9999.0,ENE,3.5,-,N/A,,Clear,70,2013-01-15 12:00:00
3:00 PM,64.4,15.8,15,30.18,3.7,ENE,8.1,-,N/A,,Unknown,70,2013-01-15 13:00:00
4:00 PM,64.4,15.8,15,30.18,3.7,ENE,8.1,-,N/A,,Unknown,70,2013-01-15 14:00:00
5:00 PM,60.8,15.8,17,30.21,3.7,Calm,Calm,-,N/A,,Unknown,0,2013-01-15 15:00:00
6:00 PM,55.4,17.6,23,30.21,3.7,Calm,Calm,-,N/A,,Unknown,0,2013-01-15 16:00:00
7:00 PM,51.8,17.6,26,30.21,5.0,Calm,Calm,-,N/A,,Unknown,0,2013-01-15 17:00:00
8:00 PM,50.0,17.6,28,30.21,-9999.0,Calm,Calm,-,N/A,,Clear,0,2013-01-15 18:00:00
9:00 PM,50.0,19.4,30,30.21,-9999.0,Calm,Calm,-,N/A,,Clear,0,2013-01-15 19:00:00
10:00 PM,48.2,19.4,32,30.21,-9999.0,Calm,Calm,-,N/A,,Clear,0,2013-01-15 20:00:00
11:00 PM,50.0,19.4,30,30.21,-9999.0,Calm,Calm,-,N/A,,Clear,0,2013-01-15 21:00:00